Wind_Speed
17 17 17 17 17 17 18 18 18 18 18 18 17 17 17 17 18 18 18 18 18 18 19 19 19 19 20 20 20 20 20 20 20 20 20 20 20 20 21 21 21 21 21 21 21 22 22 22 22 23 23 24
19 18 18 18 18 18 18 18 18 18 18 18 18 18 18 18 18 18 18 18 18 18 18 18 18 18 18 19 19 19 19 19 19 19 19 19 19 20 20 21 21 21 21 21 21 21 22 22 22 23 23 23
20 19 18 18 18 18 18 18 18 18 18 19 19 19 19 19 19 19 18 18 17 17 17 17 16 16 16 16 16 16 16 16 16 17 17 17 17 18 19 19 20 21 21 21 21 21 22 22 23 23 23 23
20 19 18 17 17 17 18 18 19 19 19 19 19 19 19 19 19 18 18 17 17 16 15 14 14 13 12 12 12 12 12 12 12 13 13 14 14 14 15 16 17 18 19 19 20 20 20 21 22 22 23 23
20 19 18 17 17 18 18 19 19 20 20 20 19 19 19 18 17 17 16 15 14 13 12 11 10 10 9 9 9 9 9 10 10 11 11 11 12 12 13 13 13 14 15 16 17 17 18 18 19 20 21 21
19 19 18 18 18 19 19 20 20 20 20 19 18 18 17 17 16 15 14 12 11 10 10 9 9 9 9 10 10 10 10 10 11 11 11 12 12 12 13 13 14 14 14 15 15 16 16 17 17 17 18 18
19 19 19 19 20 20 21 21 21 20 19 18 17 17 16 16 14 12 11 11 10 10 10 10 10 11 11 12 12 12 12 13 13 13 14 14 14 14 15 15 15 16 16 16 17 17 17 18 18 18 18 18
20 20 20 21 21 22 22 21 20 19 18 17 17 16 14 13 13 12 11 11 11 11 12 12 13 13 14 14 15 15 15 16 16 16 16 17 17 17 17 17 17 18 18 19 19 19 19 20 20 20 20 20
20 21 21 22 23 22 22 20 19 18 17 16 15 15 13 13 13 13 13 13 14 14 14 15 15 16 16 17 17 18 18 18 19 19 19 19 19 19 20 20 20 20 20 21 21 21 21 21 22 22 22 23
21 21 22 23 23 22 20 19 18 17 17 16 15 15 14 14 14 15 15 15 16 17 17 17 18 19 19 19 20 20 20 20 21 21 21 21 21 22 22 22 22 22 22 22 23 23 23 23 24 24 24 25
22 22 23 23 22 20 19 18 17 17 17 16 16 16 16 16 16 17 18 18 18 19 20 20 20 21 22 22 22 22 23 23 23 23 23 23 23 23 23 24 24 23 24 24 24 25 25 25 25 26 26 26
22 23 23 22 21 20 18 17 17 18 17 17 17 17 17 18 18 19 20 20 21 22 22 23 23 23 24 24 24 24 24 24 25 25 25 25 25 25 25 25 25 25 25 25 25 26 26 26 27 27 28 28
23 22 21 21 20 19 19 18 18 19 18 18 19 19 19 20 20 21 22 22 23 23 24 25 25 25 25 26 26 26 26 26 26 26 26 27 27 27 27 27 27 27 27 27 27 27 28 28 28 29 29 30
22 21 20 21 20 19 19 19 19 20 19 19 21 21 21 22 22 23 23 24 24 25 25 26 26 26 26 27 27 27 27 27 27 27 27 27 27 27 27 28 28 28 28 28 28 28 28 29 29 30 30 31
21 20 20 21 20 20 21 20 21 21 20 21 22 23 23 23 24 24 25 25 25 26 26 27 27 27 27 27 27 27 27 27 27 28 28 28 28 28 28 28 28 28 29 29 29 29 29 30 30 30 31 31
21 21 21 22 21 22 22 21 22 22 21 21 23 25 24 24 25 25 26 27 27 27 27 27 28 28 28 27 27 27 27 27 27 27 27 27 27 27 28 28 28 29 29 30 30 30 30 31 31 31 31 32
22 22 23 23 23 23 23 23 23 23 22 22 23 25 25 25 26 26 27 28 28 27 28 28 28 28 28 28 27 27 27 27 27 27 27 27 27 27 28 28 29 29 30 30 30 31 31 32 32 32 32 32
23 23 23 24 24 24 24 24 24 24 23 23 24 25 26 26 27 27 28 29 29 28 29 29 28 28 28 28 28 28 27 28 28 27 27 28 28 28 28 28 29 29 30 30 31 31 32 32 33 33 33 33
24 24 24 24 24 25 24 25 26 25 24 24 25 26 27 27 28 28 29 29 29 29 29 29 29 29 28 28 28 28 28 28 28 28 28 28 28 28 28 29 29 29 30 30 31 31 32 33 33 33 33 34
25 25 24 24 25 25 25 26 27 26 25 25 25 26 27 28 28 28 29 29 29 29 29 29 29 29 29 29 29 29 29 29 29 29 29 29 29 29 29 29 29 30 30 30 31 31 32 32 33 34 34 34
25 25 25 25 26 26 26 27 27 27 26 26 26 26 27 28 29 29 29 30 30 30 30 30 30 30 30 30 31 31 31 31 31 30 30 30 30 30 31 31 30 31 31 31 31 31 32 32 33 34 34 35
26 25 26 26 27 27 27 27 28 28 28 27 27 27 27 28 29 29 30 30 31 31 31 30 31 32 32 32 32 32 32 33 33 33 33 32 32 33 33 32 32 33 33 33 33 33 33 33 34 34 34 35
26 26 26 27 28 28 27 27 28 29 29 29 28 27 27 28 30 31 31 31 31 32 32 32 32 33 34 34 34 34 34 35 35 35 35 35 35 35 35 35 35 35 35 35 35 35 35 35 35 35 36 36
27 27 27 28 28 29 28 28 30 31 30 30 29 28 28 29 30 32 32 32 32 33 33 34 34 35 35 35 36 36 36 37 37 37 37 37 37 37 37 37 37 37 37 37 37 37 37 37 37 37 38 37
28 27 28 28 29 29 29 30 31 32 31 31 30 30 30 29 30 32 32 33 33 34 35 35 35 36 36 36 37 37 38 38 38 39 39 39 39 39 39 38 38 38 39 39 38 38 38 38 39 39 39 39
29 28 29 29 30 30 31 32 33 33 32 32 32 32 31 30 30 32 33 34 35 36 36 36 35 36 36 37 37 38 38 38 39 39 39 40 40 40 40 40 40 40 40 40 40 39 39 39 39 40 41 41
30 29 30 31 32 32 33 33 34 34 34 34 34 33 31 31 31 32 33 35 37 37 37 37 36 36 37 37 37 38 38 39 39 40 40 40 40 41 41 41 41 41 41 41 41 41 41 40 39 40 41 41
31 31 32 33 34 35 35 36 36 36 36 35 34 33 32 32 32 33 35 36 38 38 38 38 37 37 37 37 38 39 39 40 40 41 41 41 41 41 42 42 42 42 42 42 42 42 42 42 41 41 41 42
32 33 34 35 36 37 38 38 38 39 37 36 35 34 34 34 34 35 36 37 38 39 39 39 39 38 39 39 39 40 40 41 42 42 42 42 43 43 43 43 43 42 42 42 42 42 43 43 43 43 43 44
34 35 36 37 38 39 39 40 40 40 39 38 38 37 37 37 37 37 37 38 39 40 41 41 41 40 40 41 41 41 41 42 43 43 43 44 44 45 45 45 44 44 43 43 42 42 42 43 43 44 45 45
36 37 38 39 40 40 41 41 41 40 40 41 41 40 41 40 39 39 39 39 39 41 42 42 43 42 42 42 42 42 43 43 44 44 45 46 46 46 47 47 47 46 45 44 44 43 42 42 43 44 45 45
Wind_Direction
278 279 281 284 285 287 287 288 288 287 286 285 284 283 283 284 284 285 285 285 285 285 286 287 287 288 288 289 289 289 289 289 288 288 287 286 286 285 285 285 284 284 284 283 283 282 282 281 280 280 279 279
280 282 285 287 288 289 289 288 287 286 284 284 284 284 285 285 286 286 286 286 286 285 285 286 286 286 287 287 288 288 288 288 288 287 287 286 285 285 284 283 283 283 283 282 281 281 281 280 279 279 279 278
283 285 287 288 288 288 287 286 284 283 283 283 284 285 286 286 287 287 287 287 287 286 286 286 286 286 286 287 287 288 288 288 288 287 287 286 286 285 284 284 283 283 283 283 282 281 280 280 279 278 278 278
285 287 288 287 286 284 283 282 281 282 282 283 284 285 285 285 286 286 286 287 287 287 287 287 288 289 289 290 291 292 293 293 293 292 292 292 291 290 289 287 286 286 286 286 285 284 283 281 280 279 278 278
286 288 288 286 283 281 281 280 281 282 282 284 284 284 285 284 284 284 285 285 286 287 288 291 292 295 297 298 299 300 300 301 302 302 302 301 301 300 298 297 295 294 292 292 291 291 289 287 286 283 281 280
285 286 286 285 283 282 282 282 282 283 283 283 283 282 283 283 283 283 283 284 286 289 292 296 299 301 302 303 302 302 303 302 303 304 304 304 304 304 303 303 302 301 300 299 298 297 297 296 294 292 290 287
285 285 286 285 284 284 283 282 282 282 282 282 281 279 279 280 280 281 283 286 288 291 294 297 299 301 301 302 301 301 301 300 300 300 300 301 301 300 300 300 300 300 301 300 300 299 299 299 298 298 296 294
285 284 285 285 284 283 283 282 281 281 281 280 279 277 276 277 278 280 283 287 290 291 293 295 296 297 297 298 298 298 298 298 298 297 297 297 297 296 296 295 295 295 296 296 296 296 296 297 297 297 297 296
281 282 283 282 282 282 281 279 278 278 277 276 276 275 275 276 279 282 284 287 290 291 292 293 293 293 293 293 293 293 294 293 293 293 293 292 292 292 291 291 291 290 290 290 290 291 291 291 292 292 293 293
279 280 280 280 280 278 276 275 274 274 273 272 272 274 276 279 282 284 286 288 289 291 291 292 293 292 292 292 291 291 290 290 290 289 289 289 289 288 288 288 288 288 288 288 287 287 287 287 287 287 287 288
278 279 279 278 275 272 271 270 270 270 269 270 272 274 277 280 283 285 287 289 289 290 291 291 291 291 290 290 290 290 289 289 289 288 288 288 288 287 287 286 286 286 285 285 285 285 285 285 285 285 284 284
277 278 276 273 269 268 267 266 267 269 270 273 275 276 279 282 284 286 287 288 289 290 290 290 289 289 289 288 288 288 288 289 289 289 288 288 288 287 287 286 286 285 285 285 284 285 284 284 284 284 284 283
277 276 272 267 265 265 265 265 267 270 273 276 278 279 281 283 284 285 286 287 287 288 288 288 287 287 287 286 286 287 287 287 287 288 288 288 287 287 287 287 287 287 287 286 286 286 285 284 284 283 283 283
277 272 268 265 265 265 266 268 269 271 275 278 279 280 282 283 284 285 285 286 286 286 286 285 285 285 285 285 285 285 286 286 286 286 286 286 286 286 287 287 287 288 288 288 288 287 287 286 285 284 283 283
274 269 267 266 267 268 269 270 272 273 276 279 280 281 282 283 284 284 285 285 285 285 285 285 285 285 285 285 285 285 285 285 285 285 285 285 286 286 286 287 287 287 287 287 287 286 286 286 285 285 284 283
269 267 267 268 269 270 270 271 273 274 276 278 279 280 282 282 283 284 284 284 284 284 284 284 285 285 285 284 285 285 285 285 285 285 285 285 286 287 287 288 288 288 288 288 287 287 286 286 285 284 283 282
266 267 268 270 271 271 272 273 274 275 277 278 279 280 282 283 284 284 284 284 284 284 284 283 284 284 284 284 284 284 285 285 285 285 286 286 287 288 288 289 289 289 289 289 289 288 288 287 286 285 283 282
267 269 270 271 272 273 274 275 276 277 279 279 279 281 283 284 284 284 284 284 284 284 283 283 283 283 283 283 283 284 284 284 285 286 287 287 288 289 289 290 290 290 290 290 290 289 289 288 287 286 285 283
270 271 271 272 273 274 276 276 277 279 279 279 279 280 282 283 283 283 283 283 284 283 282 282 283 283 283 284 284 284 284 285 285 286 287 288 288 289 290 290 290 290 291 291 291 290 290 289 288 287 286 285
270 272 273 273 273 274 275 276 277 278 278 278 278 279 280 280 281 281 281 281 281 281 281 282 282 283 283 284 284 284 284 284 285 286 287 287 289 289 290 290 291 291 292 292 292 291 291 290 289 288 287 286
270 272 273 272 272 273 274 275 276 276 276 277 277 278 278 279 280 280 281 280 279 280 280 281 282 282 283 283 283 283 284 284 285 285 286 287 288 289 289 290 291 292 293 293 293 293 292 292 291 290 289 288
270 271 271 272 272 273 274 275 276 276 277 277 277 276 277 278 280 280 280 279 279 280 281 281 281 281 282 282 282 283 283 284 284 285 285 286 286 287 288 289 290 292 292 293 293 294 294 293 293 292 291 289
268 269 270 271 272 273 274 275 275 276 276 276 276 276 276 277 279 279 279 279 279 280 280 280 280 281 281 282 282 282 282 283 283 283 284 284 284 285 286 288 289 290 291 292 292 293 293 293 293 293 292 291
266 269 270 271 272 272 273 274 273 274 274 275 276 275 275 275 276 277 278 279 279 279 279 279 280 280 281 281 282 282 282 282 282 282 283 283 283 284 285 286 286 287 287 288 289 290 291 291 291 291 291 291
265 268 270 271 272 272 271 271 271 272 274 274 274 274 274 274 276 278 279 279 279 278 279 279 280 281 281 281 281 281 282 282 282 282 283 283 283 284 284 284 284 284 285 286 286 288 289 290 290 291 291 291
265 268 271 272 272 271 269 269 270 272 274 274 273 274 275 277 278 278 279 279 278 278 279 280 281 282 282 282 282 282 282 282 283 283 283 283 283 283 283 284 284 284 285 285 286 287 288 289 290 290 291 291
265 268 270 270 270 270 269 269 270 271 272 273 274 276 279 279 279 278 278 277 278 278 280 281 282 282 283 284 284 284 284 284 284 283 283 283 283 283 283 284 284 285 286 286 287 287 287 287 288 288 289 290
263 265 266 268 270 270 269 269 270 270 272 275 277 279 280 280 279 278 277 278 279 280 282 282 283 283 284 285 285 286 286 286 285 284 284 284 284 284 284 284 285 285 286 287 287 287 287 287 287 287 287 288
261 262 263 266 268 269 270 270 271 272 274 277 278 279 280 280 279 278 278 279 280 281 283 283 284 284 284 285 286 286 287 287 286 286 286 285 285 285 285 285 285 286 286 286 286 287 288 289 289 289 289 289
258 259 261 263 266 268 271 272 273 275 276 277 277 278 279 279 278 278 279 279 280 282 283 284 284 284 284 285 285 286 287 287 288 288 288 286 286 286 285 285 286 285 285 285 285 286 287 289 290 290 290 290
258 259 261 263 265 268 269 272 275 277 277 277 277 278 278 279 280 280 279 279 279 280 281 282 283 283 283 284 284 286 287 288 289 289 288 288 287 287 286 286 286 286 285 285 285 285 286 288 289 289 290 290
Height
3153 3153 3153 3154 3154 3154 3153 3153 3153 3153 3152 3152 3152 3152 3152 3152 3152 3152 3152 3152 3151 3151 3151 3151 3150 3150 3150 3150 3149 3149 3149 3149 3149 3149 3150 3150 3150 3150 3150 3150 3150 3150 3150 3150 3150 3151 3151 3151 3151 3151 3151 3151
3151 3151 3151 3151 3151 3151 3151 3151 3150 3150 3150 3150 3150 3150 3150 3150 3150 3149 3149 3149 3149 3149 3149 3148 3148 3148 3148 3147 3147 3147 3147 3147 3147 3147 3147 3147 3147 3147 3147 3147 3147 3147 3147 3147 3148 3148 3148 3148 3148 3149 3149 3149
3148 3149 3149 3149 3149 3149 3148 3148 3148 3148 3148 3148 3148 3148 3148 3147 3147 3147 3147 3147 3146 3146 3146 3146 3146 3146 3146 3145 3145 3145 3145 3145 3145 3145 3145 3145 3145 3145 3145 3145 3145 3144 3144 3144 3145 3145 3145 3145 3145 3146 3146 3146
3146 3146 3146 3146 3146 3146 3146 3146 3146 3146 3146 3146 3146 3145 3145 3145 3145 3145 3144 3144 3144 3144 3144 3144 3144 3143 3143 3143 3143 3143 3143 3143 3143 3143 3143 3143 3143 3143 3143 3143 3142 3142 3142 3142 3142 3142 3142 3142 3142 3143 3143 3143
3143 3143 3143 3144 3144 3144 3144 3144 3144 3144 3144 3143 3143 3143 3143 3143 3143 3142 3142 3142 3142 3142 3142 3141 3141 3141 3141 3141 3141 3141 3141 3141 3141 3141 3141 3141 3141 3141 3141 3141 3141 3140 3140 3140 3140 3139 3139 3139 3140 3140 3140 3140
3141 3141 3141 3141 3141 3141 3141 3141 3141 3141 3141 3141 3141 3141 3140 3140 3140 3140 3140 3140 3140 3140 3140 3139 3139 3139 3139 3139 3139 3140 3140 3139 3139 3139 3139 3139 3139 3139 3139 3139 3139 3139 3138 3138 3138 3138 3137 3137 3137 3137 3137 3137
3138 3138 3138 3138 3139 3139 3139 3139 3139 3139 3139 3139 3139 3139 3139 3138 3138 3138 3138 3138 3138 3138 3138 3138 3138 3138 3138 3138 3137 3137 3138 3137 3138 3137 3137 3137 3137 3137 3137 3137 3137 3137 3136 3136 3136 3136 3136 3135 3135 3135 3135 3135
3136 3136 3136 3136 3136 3136 3136 3136 3136 3136 3136 3136 3136 3136 3136 3136 3136 3136 3136 3136 3136 3136 3136 3136 3136 3136 3136 3136 3135 3135 3135 3135 3135 3135 3135 3135 3135 3135 3135 3135 3135 3135 3135 3134 3134 3134 3134 3133 3133 3133 3133 3133
3133 3134 3134 3134 3134 3134 3134 3134 3134 3134 3133 3134 3134 3134 3134 3134 3134 3134 3134 3134 3134 3134 3134 3134 3134 3134 3134 3134 3134 3133 3133 3133 3133 3133 3133 3133 3133 3133 3132 3133 3133 3132 3132 3132 3132 3132 3132 3131 3131 3131 3130 3130
3131 3132 3132 3132 3132 3132 3132 3132 3131 3131 3131 3131 3132 3131 3132 3132 3132 3132 3132 3132 3132 3131 3131 3132 3132 3131 3131 3131 3131 3131 3131 3131 3131 3131 3131 3130 3130 3130 3130 3130 3130 3130 3130 3130 3129 3129 3129 3129 3129 3129 3128 3128
3129 3129 3129 3130 3130 3130 3130 3130 3129 3129 3129 3129 3130 3129 3130 3130 3130 3130 3129 3129 3129 3129 3129 3129 3129 3129 3129 3129 3129 3128 3128 3128 3128 3128 3128 3128 3128 3127 3127 3127 3127 3127 3127 3127 3127 3126 3126 3126 3126 3126 3126 3125
3127 3127 3127 3127 3127 3127 3127 3127 3127 3127 3127 3127 3127 3127 3127 3127 3127 3127 3127 3127 3127 3127 3127 3127 3127 3127 3126 3126 3126 3126 3126 3125 3125 3125 3125 3125 3125 3124 3124 3124 3124 3124 3124 3124 3124 3124 3123 3123 3123 3123 3123 3122
3124 3124 3124 3124 3125 3125 3125 3125 3125 3125 3125 3125 3124 3124 3125 3125 3125 3125 3125 3125 3125 3124 3124 3124 3124 3124 3124 3123 3123 3123 3123 3123 3122 3122 3122 3121 3121 3121 3121 3121 3121 3121 3121 3121 3120 3120 3120 3120 3120 3119 3119 3119
3121 3121 3122 3122 3122 3122 3122 3123 3123 3122 3123 3122 3122 3122 3122 3122 3122 3122 3122 3122 3122 3122 3122 3122 3122 3121 3121 3121 3121 3120 3120 3120 3119 3119 3119 3118 3118 3118 3118 3117 3117 3117 3117 3117 3117 3117 3116 3116 3116 3116 3116 3116
3117 3118 3118 3119 3119 3119 3119 3120 3120 3120 3120 3120 3119 3119 3119 3119 3119 3119 3119 3119 3119 3119 3119 3118 3118 3118 3118 3118 3117 3117 3117 3117 3116 3116 3115 3115 3115 3115 3114 3114 3114 3114 3113 3113 3113 3113 3113 3113 3112 3112 3112 3112
3114 3115 3116 3116 3116 3116 3117 3117 3117 3117 3118 3117 3116 3115 3116 3116 3116 3116 3116 3115 3116 3116 3116 3115 3115 3115 3115 3114 3114 3114 3114 3113 3113 3113 3112 3112 3112 3111 3111 3111 3110 3110 3110 3110 3110 3109 3109 3109 3109 3109 3108 3108
3112 3113 3113 3113 3113 3113 3113 3114 3114 3114 3115 3114 3114 3112 3112 3113 3113 3113 3112 3112 3112 3112 3112 3112 3112 3112 3111 3111 3111 3111 3110 3110 3110 3109 3109 3109 3108 3108 3108 3107 3107 3107 3106 3106 3106 3106 3105 3105 3105 3105 3105 3104
3109 3110 3110 3110 3110 3110 3110 3110 3110 3110 3111 3111 3111 3110 3109 3109 3109 3109 3109 3108 3109 3109 3109 3109 3109 3108 3108 3108 3108 3107 3107 3107 3106 3106 3106 3105 3105 3105 3104 3104 3104 3103 3103 3103 3102 3102 3102 3101 3101 3101 3101 3100
3106 3107 3107 3107 3107 3107 3107 3107 3107 3107 3108 3108 3108 3107 3107 3106 3106 3106 3106 3105 3105 3105 3105 3105 3105 3105 3104 3104 3104 3104 3103 3103 3103 3102 3102 3102 3101 3101 3101 3101 3100 3100 3100 3099 3099 3099 3098 3098 3097 3097 3097 3096
3103 3103 3104 3104 3104 3104 3104 3103 3103 3104 3104 3104 3104 3104 3103 3103 3103 3103 3102 3102 3102 3102 3101 3101 3101 3101 3100 3100 3100 3099 3099 3099 3099 3098 3098 3097 3097 3097 3097 3097 3096 3096 3096 3095 3095 3095 3094 3094 3093 3093 3092 3092
3099 3100 3100 3100 3100 3100 3100 3100 3100 3100 3100 3101 3101 3100 3100 3099 3099 3099 3099 3098 3098 3098 3098 3098 3097 3097 3096 3096 3096 3095 3095 3095 3094 3094 3094 3093 3093 3093 3092 3092 3092 3092 3091 3091 3091 3090 3090 3089 3089 3088 3088 3087
3096 3096 3096 3096 3097 3097 3097 3097 3096 3096 3096 3097 3097 3097 3096 3096 3095 3095 3095 3094 3094 3094 3094 3094 3093 3093 3092 3092 3092 3091 3091 3090 3090 3090 3089 3089 3089 3088 3088 3088 3087 3087 3087 3086 3086 3086 3085 3085 3084 3084 3083 3082
3092 3092 3092 3093 3093 3093 3093 3093 3092 3092 3092 3093 3093 3093 3093 3092 3091 3091 3090 3090 3090 3090 3090 3090 3090 3089 3088 3088 3088 3087 3087 3086 3086 3085 3085 3084 3084 3084 3084 3083 3083 3082 3082 3081 3081 3081 3080 3080 3080 3079 3079 3078
3088 3088 3089 3089 3089 3089 3090 3089 3088 3088 3088 3089 3089 3090 3090 3089 3088 3087 3087 3087 3086 3086 3086 3086 3085 3085 3084 3084 3084 3083 3083 3082 3081 3081 3080 3080 3079 3079 3079 3078 3078 3078 3077 3077 3077 3076 3076 3075 3075 3074 3074 3074
3084 3085 3085 3085 3085 3086 3086 3085 3085 3084 3085 3085 3085 3085 3085 3086 3085 3084 3083 3082 3082 3082 3082 3081 3081 3080 3080 3079 3079 3079 3078 3078 3077 3076 3076 3075 3075 3074 3074 3074 3073 3073 3073 3072 3072 3072 3071 3070 3070 3069 3069 3069
3081 3081 3081 3081 3081 3081 3081 3081 3081 3080 3080 3080 3080 3081 3081 3082 3082 3080 3079 3078 3077 3077 3077 3077 3076 3076 3075 3075 3074 3074 3073 3073 3072 3072 3071 3070 3070 3069 3069 3068 3068 3068 3067 3067 3067 3067 3066 3065 3064 3064 3063 3063
3077 3077 3077 3076 3076 3076 3076 3076 3076 3076 3076 3076 3075 3076 3077 3077 3077 3076 3075 3073 3072 3072 3072 3072 3072 3071 3070 3070 3069 3069 3068 3068 3067 3067 3066 3065 3065 3064 3064 3063 3063 3062 3062 3061 3061 3061 3060 3060 3060 3059 3058 3057
3073 3073 3072 3071 3071 3071 3071 3071 3071 3071 3071 3071 3071 3072 3072 3072 3072 3071 3070 3069 3067 3067 3067 3067 3066 3066 3065 3065 3064 3063 3063 3063 3062 3061 3061 3060 3059 3059 3058 3058 3057 3057 3056 3056 3055 3054 3054 3054 3054 3053 3053 3052
3068 3068 3067 3067 3066 3065 3065 3066 3066 3066 3066 3067 3067 3067 3067 3067 3067 3066 3065 3064 3063 3062 3061 3061 3061 3061 3060 3059 3059 3058 3058 3057 3056 3056 3056 3055 3054 3053 3053 3052 3052 3052 3051 3051 3050 3049 3048 3047 3047 3046 3047 3046
3063 3062 3062 3062 3061 3061 3060 3061 3061 3061 3062 3062 3061 3062 3061 3061 3061 3061 3060 3060 3058 3057 3056 3056 3056 3055 3055 3054 3053 3053 3052 3051 3051 3051 3050 3049 3048 3048 3047 3046 3046 3046 3046 3046 3045 3044 3043 3042 3041 3040 3040 3039
3058 3057 3057 3057 3056 3056 3056 3055 3056 3057 3057 3056 3056 3056 3055 3055 3055 3055 3055 3055 3054 3052 3051 3050 3050 3050 3049 3048 3048 3047 3047 3046 3046 3045 3044 3044 3043 3042 3041 3040 3040 3040 3040 3040 3039 3039 3038 3037 3036 3035 3034 3033